WAT4275 YPAD-YMTG

Flight info

Callsign WAT4275
Flight time 0h 48m
Altitude 19000
Route AD W519 MTG
Aircraft B350/L-SBGRW/S

Departure

Time 2026-04-25 12:11
Airport Adelaide International Airport (YPAD)

Arrival

Time 2026-04-25 12:59
Airport Mount Gambier Airport (YMTG)
Time Latitude Longitude Altitude Speed Heading
2026-04-25 12:06 -34.93801 138.54249 22 ft 0 kts 209°
2026-04-25 12:09 -34.93811 138.54189 22 ft 13 kts 243°
2026-04-25 12:09 -34.93878 138.54129 22 ft 16 kts 162°
2026-04-25 12:09 -34.93974 138.54220 24 ft 16 kts 140°
2026-04-25 12:10 -34.94061 138.54283 27 ft 14 kts 180°
2026-04-25 12:10 -34.94164 138.54182 28 ft 46 kts 231°
2026-04-25 12:10 -34.94592 138.53562 124 ft 127 kts 231°
2026-04-25 12:10 -34.95275 138.52753 542 ft 152 kts 202°
2026-04-25 12:11 -34.96331 138.52926 986 ft 168 kts 142°
2026-04-25 12:11 -34.97128 138.54035 1448 ft 180 kts 132°
2026-04-25 12:11 -34.97951 138.55244 1913 ft 189 kts 133°
2026-04-25 12:11 -34.98842 138.56464 2364 ft 196 kts 134°
2026-04-25 12:12 -34.99788 138.57691 2806 ft 201 kts 135°
2026-04-25 12:12 -35.00435 138.58517 3112 ft 205 kts 135°
2026-04-25 12:12 -35.01786 138.60221 3726 ft 212 kts 135°
2026-04-25 12:12 -35.02880 138.61459 4171 ft 217 kts 140°
2026-04-25 12:13 -35.04031 138.62681 4653 ft 221 kts 138°
2026-04-25 12:13 -35.05161 138.63943 5108 ft 225 kts 137°
2026-04-25 12:13 -35.06327 138.65237 5572 ft 228 kts 137°
2026-04-25 12:13 -35.07513 138.66533 6005 ft 230 kts 138°
2026-04-25 12:14 -35.08702 138.67843 6451 ft 229 kts 137°
2026-04-25 12:14 -35.09879 138.69151 6905 ft 229 kts 137°
2026-04-25 12:14 -35.11064 138.70455 7346 ft 229 kts 137°
2026-04-25 12:14 -35.12252 138.71760 7798 ft 229 kts 137°
2026-04-25 12:15 -35.13437 138.73074 8250 ft 231 kts 136°
2026-04-25 12:15 -35.14633 138.74395 8710 ft 233 kts 137°
2026-04-25 12:15 -35.15843 138.75729 9157 ft 235 kts 136°
2026-04-25 12:15 -35.17059 138.77074 9622 ft 236 kts 136°
2026-04-25 12:16 -35.18283 138.78430 10090 ft 238 kts 136°
2026-04-25 12:16 -35.19503 138.79775 10492 ft 239 kts 136°
2026-04-25 12:16 -35.20737 138.81144 10930 ft 240 kts 136°
2026-04-25 12:16 -35.22006 138.82548 11135 ft 252 kts 136°
2026-04-25 12:17 -35.23336 138.84016 11305 ft 261 kts 136°
2026-04-25 12:17 -35.24698 138.85528 11476 ft 267 kts 136°
2026-04-25 12:17 -35.26086 138.87069 11651 ft 271 kts 137°
2026-04-25 12:17 -35.27496 138.88630 11823 ft 274 kts 137°
2026-04-25 12:18 -35.28913 138.90204 12000 ft 276 kts 137°
2026-04-25 12:18 -35.30338 138.91786 12182 ft 278 kts 136°
2026-04-25 12:18 -35.31755 138.93362 12349 ft 279 kts 137°
2026-04-25 12:18 -35.33194 138.94960 12530 ft 280 kts 137°
2026-04-25 12:19 -35.35612 138.97649 12826 ft 281 kts 137°
2026-04-25 12:19 -35.37532 138.99787 13068 ft 282 kts 136°
2026-04-25 12:19 -35.38986 139.01404 13249 ft 283 kts 137°
2026-04-25 12:20 -35.40444 139.03030 13427 ft 283 kts 137°
2026-04-25 12:20 -35.41904 139.04657 13610 ft 284 kts 136°
2026-04-25 12:20 -35.43367 139.06290 13789 ft 284 kts 136°
2026-04-25 12:20 -35.44833 139.07926 13971 ft 284 kts 136°
2026-04-25 12:21 -35.46295 139.09559 14137 ft 285 kts 136°
2026-04-25 12:21 -35.47765 139.11200 14302 ft 285 kts 136°
2026-04-25 12:21 -35.49235 139.12844 14469 ft 286 kts 136°
2026-04-25 12:21 -35.50704 139.14487 14639 ft 287 kts 136°
2026-04-25 12:22 -35.52183 139.16142 14805 ft 288 kts 136°
2026-04-25 12:22 -35.53645 139.17777 14969 ft 288 kts 136°
2026-04-25 12:22 -35.55136 139.19447 15081 ft 291 kts 136°
2026-04-25 12:22 -35.56646 139.21140 15132 ft 296 kts 136°
2026-04-25 12:23 -35.58179 139.22856 15149 ft 300 kts 136°
2026-04-25 12:23 -35.59724 139.24590 15163 ft 302 kts 136°
2026-04-25 12:23 -35.61284 139.26342 15168 ft 304 kts 136°
2026-04-25 12:23 -35.62851 139.28100 15169 ft 306 kts 136°
2026-04-25 12:24 -35.64422 139.29867 15174 ft 306 kts 136°
2026-04-25 12:24 -35.66001 139.31635 15176 ft 307 kts 137°
2026-04-25 12:24 -35.67637 139.33326 15178 ft 308 kts 141°
2026-04-25 12:24 -35.69361 139.34898 15185 ft 308 kts 144°
2026-04-25 12:25 -35.71104 139.36379 15181 ft 308 kts 148°
2026-04-25 12:25 -35.72999 139.37632 15180 ft 309 kts 154°
2026-04-25 12:25 -35.74898 139.38900 15178 ft 309 kts 150°
2026-04-25 12:25 -35.76777 139.40193 15177 ft 309 kts 152°
2026-04-25 12:26 -35.78667 139.41456 15173 ft 309 kts 152°
2026-04-25 12:26 -35.80553 139.42747 15178 ft 309 kts 152°
2026-04-25 12:26 -35.82443 139.44024 15176 ft 310 kts 152°
2026-04-25 12:26 -35.84330 139.45303 15175 ft 310 kts 152°
2026-04-25 12:27 -35.86192 139.46570 15176 ft 310 kts 152°
2026-04-25 12:27 -35.88085 139.47854 15175 ft 310 kts 152°
2026-04-25 12:27 -35.89973 139.49136 15174 ft 310 kts 152°
2026-04-25 12:27 -35.91861 139.50421 15174 ft 310 kts 152°
2026-04-25 12:28 -35.93747 139.51703 15176 ft 309 kts 152°
2026-04-25 12:28 -35.95632 139.52986 15174 ft 309 kts 152°
2026-04-25 12:28 -35.97519 139.54271 15177 ft 309 kts 152°
2026-04-25 12:28 -35.99407 139.55557 15178 ft 310 kts 151°
2026-04-25 12:29 -36.01291 139.56841 15174 ft 310 kts 151°
2026-04-25 12:29 -36.03177 139.58129 15175 ft 309 kts 152°
2026-04-25 12:29 -36.05062 139.59413 15176 ft 310 kts 152°
2026-04-25 12:29 -36.06929 139.60688 15176 ft 310 kts 151°
2026-04-25 12:30 -36.08814 139.61977 15177 ft 310 kts 151°
2026-04-25 12:30 -36.10705 139.63252 15177 ft 310 kts 152°
2026-04-25 12:30 -36.12609 139.64505 15176 ft 310 kts 152°
2026-04-25 12:30 -36.14438 139.65913 15179 ft 310 kts 145°
2026-04-25 12:31 -36.16242 139.67378 15176 ft 310 kts 148°
2026-04-25 12:31 -36.18072 139.68794 15176 ft 310 kts 147°
2026-04-25 12:31 -36.19880 139.70245 15174 ft 310 kts 147°
2026-04-25 12:31 -36.21701 139.71678 15176 ft 310 kts 147°
2026-04-25 12:32 -36.23518 139.73118 15178 ft 310 kts 147°
2026-04-25 12:32 -36.25337 139.74562 15174 ft 310 kts 147°
2026-04-25 12:32 -36.27156 139.76002 15174 ft 310 kts 147°
2026-04-25 12:32 -36.28972 139.77445 15176 ft 310 kts 147°
2026-04-25 12:33 -36.30768 139.78871 15172 ft 310 kts 147°
2026-04-25 12:33 -36.32585 139.80314 15171 ft 310 kts 147°
2026-04-25 12:33 -36.34404 139.81760 15173 ft 310 kts 147°
2026-04-25 12:33 -36.36221 139.83206 15174 ft 310 kts 147°
2026-04-25 12:34 -36.38037 139.84651 15176 ft 310 kts 147°
2026-04-25 12:34 -36.39853 139.86097 15175 ft 310 kts 147°
2026-04-25 12:34 -36.41667 139.87543 15177 ft 310 kts 147°
2026-04-25 12:34 -36.42281 139.88033 15176 ft 310 kts 147°
2026-04-25 12:35 -36.45298 139.90438 15175 ft 310 kts 147°
2026-04-25 12:35 -36.47115 139.91888 15173 ft 310 kts 147°
2026-04-25 12:35 -36.48935 139.93342 15176 ft 310 kts 147°
2026-04-25 12:35 -36.50752 139.94792 15177 ft 310 kts 147°
2026-04-25 12:36 -36.52572 139.96250 15178 ft 311 kts 147°
2026-04-25 12:36 -36.54390 139.97702 15179 ft 311 kts 147°
2026-04-25 12:36 -36.56211 139.99160 15175 ft 311 kts 147°
2026-04-25 12:36 -36.58005 140.00598 15171 ft 311 kts 147°
2026-04-25 12:37 -36.59824 140.02054 15175 ft 311 kts 147°
2026-04-25 12:37 -36.61640 140.03512 15174 ft 311 kts 147°
2026-04-25 12:37 -36.63458 140.04969 15173 ft 311 kts 147°
2026-04-25 12:37 -36.65279 140.06431 15172 ft 311 kts 147°
2026-04-25 12:38 -36.67103 140.07895 15174 ft 311 kts 147°
2026-04-25 12:38 -36.68921 140.09357 15172 ft 311 kts 147°
2026-04-25 12:38 -36.70740 140.10820 15173 ft 311 kts 147°
2026-04-25 12:38 -36.72557 140.12282 15173 ft 311 kts 147°
2026-04-25 12:39 -36.74378 140.13747 15176 ft 311 kts 147°
2026-04-25 12:39 -36.75580 140.14714 15175 ft 311 kts 147°
2026-04-25 12:39 -36.77402 140.16184 15175 ft 311 kts 147°
2026-04-25 12:39 -36.79221 140.17649 15175 ft 311 kts 147°
2026-04-25 12:40 -36.81040 140.19116 15175 ft 312 kts 147°
2026-04-25 12:40 -36.82861 140.20587 15171 ft 312 kts 147°
2026-04-25 12:40 -36.84679 140.22054 15172 ft 311 kts 147°
2026-04-25 12:40 -36.86496 140.23524 15175 ft 311 kts 147°
2026-04-25 12:41 -36.88316 140.24994 15170 ft 312 kts 147°
2026-04-25 12:41 -36.90135 140.26466 15176 ft 312 kts 147°
2026-04-25 12:41 -36.91953 140.27938 15176 ft 312 kts 147°
2026-04-25 12:41 -36.93782 140.29418 15175 ft 312 kts 147°
2026-04-25 12:42 -36.95578 140.30875 15172 ft 312 kts 147°
2026-04-25 12:42 -36.96810 140.31873 15171 ft 312 kts 147°
2026-04-25 12:42 -36.99225 140.33834 15172 ft 312 kts 147°
2026-04-25 12:42 -37.01049 140.35312 15174 ft 312 kts 147°
2026-04-25 12:43 -37.02870 140.36792 15175 ft 312 kts 147°
2026-04-25 12:43 -37.04689 140.38272 15171 ft 312 kts 147°
2026-04-25 12:43 -37.08301 140.41209 15175 ft 312 kts 146°
2026-04-25 12:44 -37.10119 140.42689 15175 ft 312 kts 147°
2026-04-25 12:44 -37.11938 140.44171 15170 ft 312 kts 146°
2026-04-25 12:44 -37.15575 140.47136 15173 ft 312 kts 146°
2026-04-25 12:45 -37.17392 140.48619 15174 ft 311 kts 146°
2026-04-25 12:45 -37.19207 140.50101 15173 ft 311 kts 147°
2026-04-25 12:45 -37.22839 140.53069 15171 ft 311 kts 146°
2026-04-25 12:46 -37.24652 140.54553 15175 ft 311 kts 146°
2026-04-25 12:46 -37.26471 140.56041 15173 ft 311 kts 146°
2026-04-25 12:46 -37.28285 140.57526 15178 ft 312 kts 146°
2026-04-25 12:46 -37.30105 140.59017 15175 ft 312 kts 146°
2026-04-25 12:47 -37.31921 140.60507 15182 ft 312 kts 146°
2026-04-25 12:47 -37.33737 140.61996 15173 ft 312 kts 146°
2026-04-25 12:47 -37.35534 140.63471 15182 ft 312 kts 146°
2026-04-25 12:47 -37.37351 140.64963 15176 ft 310 kts 146°
2026-04-25 12:48 -37.39100 140.66393 14814 ft 297 kts 146°
2026-04-25 12:48 -37.40824 140.67823 14243 ft 296 kts 146°
2026-04-25 12:48 -37.42542 140.69233 13649 ft 294 kts 146°
2026-04-25 12:48 -37.44245 140.70636 13015 ft 292 kts 146°
2026-04-25 12:49 -37.45942 140.72034 12404 ft 289 kts 146°
2026-04-25 12:49 -37.47624 140.73418 11803 ft 287 kts 146°
2026-04-25 12:49 -37.49295 140.74796 11216 ft 286 kts 146°
2026-04-25 12:49 -37.50953 140.76165 10628 ft 284 kts 147°
2026-04-25 12:50 -37.52576 140.77502 10069 ft 282 kts 147°
2026-04-25 12:50 -37.54209 140.78854 9439 ft 280 kts 146°
2026-04-25 12:50 -37.55875 140.80079 8822 ft 276 kts 161°
2026-04-25 12:50 -37.57720 140.80648 8227 ft 271 kts 175°
2026-04-25 12:51 -37.59588 140.80840 7624 ft 267 kts 184°
2026-04-25 12:51 -37.61419 140.80620 7050 ft 263 kts 192°
2026-04-25 12:51 -37.63226 140.80315 6472 ft 259 kts 188°
2026-04-25 12:51 -37.64973 140.80134 5864 ft 246 kts 188°
2026-04-25 12:52 -37.66643 140.79917 5265 ft 237 kts 189°
2026-04-25 12:52 -37.68261 140.79701 4731 ft 230 kts 187°
2026-04-25 12:52 -37.69789 140.80143 4158 ft 226 kts 148°
2026-04-25 12:52 -37.71135 140.81131 3608 ft 223 kts 154°
2026-04-25 12:53 -37.72550 140.81870 3057 ft 219 kts 160°
2026-04-25 12:53 -37.73945 140.82494 2735 ft 202 kts 163°
2026-04-25 12:53 -37.75232 140.82930 2588 ft 181 kts 172°
2026-04-25 12:53 -37.76425 140.83096 2519 ft 164 kts 182°
2026-04-25 12:54 -37.77517 140.83063 2423 ft 151 kts 186°
2026-04-25 12:54 -37.78501 140.82989 2323 ft 135 kts 188°
2026-04-25 12:54 -37.79402 140.82924 2267 ft 125 kts 188°
2026-04-25 12:54 -37.80234 140.82894 2221 ft 118 kts 182°
2026-04-25 12:55 -37.81035 140.82928 2231 ft 113 kts 182°
2026-04-25 12:55 -37.81552 140.82940 2241 ft 110 kts 191°
2026-04-25 12:55 -37.82152 140.82082 2216 ft 105 kts 247°
2026-04-25 12:55 -37.82446 140.81231 2187 ft 106 kts 266°
2026-04-25 12:56 -37.82371 140.80306 2180 ft 107 kts 285°
2026-04-25 12:56 -37.81981 140.79534 2103 ft 109 kts 322°
2026-04-25 12:56 -37.81332 140.78973 1830 ft 119 kts 333°
2026-04-25 12:56 -37.80555 140.78619 1446 ft 119 kts 344°
2026-04-25 12:57 -37.79750 140.78472 1068 ft 116 kts 355°
2026-04-25 12:57 -37.78951 140.78430 767 ft 113 kts
2026-04-25 12:57 -37.78162 140.78480 641 ft 112 kts
2026-04-25 12:57 -37.77389 140.78555 545 ft 111 kts
2026-04-25 12:58 -37.76624 140.78639 392 ft 108 kts
2026-04-25 12:58 -37.75897 140.78731 274 ft 103 kts
2026-04-25 12:58 -37.75204 140.78819 211 ft 93 kts
2026-04-25 12:58 -37.74618 140.78894 208 ft 61 kts
2026-04-25 12:59 -37.74398 140.78923 216 ft 11 kts 20°
2026-04-25 12:59 -37.74422 140.78934 218 ft 17 kts 198°
2026-04-25 12:59 -37.74581 140.78871 209 ft 23 kts 229°
2026-04-25 12:59 -37.74570 140.78783 212 ft 14 kts 334°
2026-04-25 13:00 -37.74471 140.78705 213 ft 19 kts 315°
2026-04-25 13:00 -37.74417 140.78635 214 ft 14 kts 314°
2026-04-25 13:00 -37.74394 140.78545 214 ft 4 kts 312°
2026-04-25 13:00 -37.74382 140.78523 214 ft 2 kts 236°
2026-04-25 13:01 -37.74390 140.78516 216 ft 0 kts 229°